Temp
51 51 51 51 51 51 51 51 52 52 52 54 53 53 54 54 54 45 42 41 42 37 41 47 52 45 46 43 41 45 44 44 40 36 35 35 34 37 36 39 36 35 30 26 27 26 26 47 45 37 38 37 39 37
51 50 50 50 50 51 51 51 51 52 52 53 54 53 54 54 53 47 39 43 43 40 43 44 50 54 53 51 45 41 44 42 42 36 35 35 35 35 34 29 40 33 37 32 33 32 40 40 40 40 41 39 38 37
50 50 50 50 50 50 50 50 51 51 53 52 54 54 54 54 54 51 40 39 40 38 41 43 46 50 50 52 52 46 43 46 43 42 38 36 37 35 31 33 35 40 41 32 35 38 39 40 40 41 41 39 39 39
50 50 50 50 50 50 50 50 50 51 52 52 52 54 54 55 53 52 44 39 39 38 35 42 53 49 54 53 52 51 49 45 43 41 38 36 34 39 34 37 36 39 41 36 35 38 40 42 41 40 39 39 38 39
49 50 50 50 50 50 50 50 50 51 51 52 53 53 54 54 53 50 45 41 41 40 36 38 45 48 50 52 51 49 47 43 40 40 37 37 36 38 35 37 35 40 39 34 34 41 40 40 41 40 38 37 38 38
49 49 49 50 50 50 50 50 50 50 51 52 53 53 53 53 51 47 41 41 41 41 37 35 44 46 47 49 49 47 45 41 39 39 37 37 40 39 34 32 41 42 43 43 43 42 40 39 40 40 38 38 39 39
49 49 49 49 50 50 50 50 50 50 51 51 52 52 52 52 48 44 42 43 45 41 38 35 37 45 49 46 44 43 42 41 40 37 37 37 38 39 33 29 44 44 45 41 41 42 40 39 37 38 39 39 43 43
49 49 49 49 49 49 50 50 50 50 51 51 51 52 52 51 49 45 48 51 48 40 38 33 35 40 47 41 40 40 39 39 39 38 37 37 38 36 34 40 41 44 42 41 42 42 41 40 38 38 38 39 39 40
49 49 49 49 49 49 49 50 50 50 50 50 51 51 46 44 41 45 51 50 46 44 33 32 32 34 44 38 39 40 39 36 38 36 36 39 34 34 40 42 42 42 44 42 40 39 39 38 37 37 37 37 40 40
49 49 49 49 49 49 49 49 49 50 50 50 46 42 39 43 52 52 46 43 42 41 37 31 35 35 42 37 36 38 37 36 33 37 38 35 34 41 44 46 47 45 43 42 38 35 36 36 36 36 36 38 41 42
49 49 49 49 49 49 49 49 49 49 49 42 39 38 44 51 45 42 38 37 35 33 34 36 35 37 43 38 37 38 35 35 33 36 36 32 30 39 44 44 45 44 44 43 42 40 39 39 37 36 38 40 43 42
49 49 49 49 49 49 49 49 49 42 39 43 43 44 45 41 39 33 33 37 35 32 35 36 39 39 42 41 39 37 37 37 34 38 35 30 36 41 42 42 41 43 43 42 42 40 39 39 38 38 39 40 40 40
48 49 48 49 49 49 49 49 49 47 47 44 40 39 36 37 31 29 29 32 34 34 36 38 39 41 40 41 38 38 37 34 39 34 33 35 39 40 41 41 40 42 42 41 40 40 40 40 41 40 41 42 42 40
48 48 48 49 49 48 49 49 49 46 42 36 33 29 30 29 32 34 33 36 37 37 37 40 41 42 41 41 38 38 40 38 31 30 33 36 39 40 41 43 42 40 40 40 40 40 41 41 40 42 46 44 42 40
48 48 48 48 49 49 49 49 49 44 39 34 34 29 31 33 33 34 35 35 38 39 38 38 40 43 41 41 41 37 34 32 33 33 33 38 39 42 41 42 41 40 39 39 40 40 41 42 41 41 42 42 42 41
48 47 45 47 48 48 48 47 44 43 38 36 35 33 37 35 34 32 34 34 42 39 39 40 40 39 36 39 37 35 34 32 37 36 37 38 40 41 41 42 41 42 40 39 40 41 42 41 40 40 41 42 41 41
46 41 46 47 48 48 48 41 39 36 34 34 33 39 37 36 35 38 39 41 43 43 39 39 37 36 37 33 33 36 35 41 41 38 38 40 41 41 41 42 42 42 40 40 40 40 40 44 44 42 38 40 40 41
40 42 48 48 45 44 41 38 34 35 33 35 32 31 30 37 40 40 42 43 42 42 42 39 41 35 33 33 33 38 39 39 38 38 39 40 41 42 44 41 42 41 40 40 40 41 45 44 42 42 39 39 39 40
41 42 48 47 45 40 36 36 35 32 35 37 35 32 32 36 39 42 42 43 43 45 42 39 35 37 33 37 38 37 38 38 37 38 38 41 43 43 42 42 41 40 39 39 40 43 44 44 43 43 42 42 39 42
47 48 47 47 46 38 35 35 40 35 33 32 32 31 33 35 38 40 40 40 42 41 37 36 35 39 37 42 43 43 42 42 43 39 38 38 41 42 41 40 39 39 39 40 40 41 44 44 44 44 44 43 43 43
42 43 47 45 42 40 38 36 36 37 35 30 33 33 32 34 35 35 35 38 37 34 35 38 39 44 46 45 46 45 44 46 45 47 43 37 39 40 39 39 39 39 38 38 39 41 42 44 46 47 45 44 47 46
41 46 42 44 38 39 37 37 33 34 33 33 34 33 27 28 30 33 37 31 35 39 41 40 43 44 45 45 46 47 45 44 44 43 41 42 39 38 38 38 39 38 39 39 41 43 43 48 48 47 47 46 47 48
46 44 41 39 34 34 33 37 31 32 31 32 34 32 29 28 30 35 28 33 37 42 44 43 44 45 46 46 48 49 49 48 45 44 44 41 40 40 40 39 41 40 39 40 41 44 44 44 46 49 49 48 48 48
46 39 35 34 31 28 36 32 32 32 33 29 28 29 29 26 30 29 31 32 38 41 42 43 46 45 46 45 44 46 46 46 44 43 44 43 40 39 40 40 41 42 43 43 42 45 47 49 46 49 49 49 48 48
29 31 31 22 33 32 32 32 33 31 30 29 26 28 28 27 25 27 31 32 35 37 39 41 43 43 42 41 42 44 48 48 47 44 43 43 40 39 39 40 41 43 43 43 43 45 47 50 51 50 50 52 52 52
23 32 28 32 32 32 31 30 31 30 29 29 30 29 26 26 30 29 31 34 35 36 39 40 41 39 40 41 42 44 46 47 47 44 43 46 46 44 41 40 40 41 43 46 45 46 47 51 52 51 50 47 43 52
21 30 31 33 31 32 31 31 31 29 30 31 27 27 24 26 29 33 35 37 37 37 39 41 42 42 42 42 43 47 50 49 50 49 47 47 46 48 48 44 42 45 45 46 47 49 48 52 53 52 50 50 51 53
31 31 30 31 31 31 32 29 28 31 30 31 29 27 25 26 28 34 37 40 40 40 40 40 41 44 44 45 46 47 48 47 46 47 47 45 45 45 46 47 47 39 47 48 49 50 51 53 53 53 51 50 50 52
30 31 32 31 32 31 30 30 29 31 35 31 28 28 32 35 38 38 40 41 42 41 40 40 40 42 44 44 46 46 49 49 47 44 43 40 41 43 45 46 44 46 47 46 37 43 51 53 53 53 52 51 51 51
31 33 32 33 31 30 33 32 32 35 36 36 36 36 37 38 40 42 41 41 42 41 42 43 41 42 43 44 43 44 49 53 53 50 45 42 45 45 46 46 46 47 47 47 47 45 37 47 46 51 51 50 50 49
34 33 33 32 32 35 37 37 37 37 37 36 36 35 34 37 39 40 42 43 44 43 42 44 43 43 44 43 43 45 45 47 52 53 51 48 47 48 47 47 48 48 48 48 48 49 49 50 51 50 50 49 48 48
33 31 29 29 29 35 36 34 34 33 33 33 33 34 35 35 35 39 42 42 41 41 40 42 43 45 47 47 47 50 44 54 51 49 50 48 48 48 48 48 49 50 49 48 49 49 51 51 50 49 49 49 49 48
31 30 29 28 27 31 33 34 33 33 31 29 29 32 33 33 34 39 43 43 44 42 43 45 47 47 48 49 48 48 43 50 47 39 39 40 41 44 49 49 50 51 50 49 49 50 51 51 49 49 49 49 48 47
MSLP
1025.64 1025.45 1025.25 1025.02 1024.75 1024.41 1024.16 1023.87 1023.49 1023.17 1023.06 1022.84 1022.65 1022.42 1022.16 1021.72 1021.55 1021.83 1021.71 1021.61 1021.59 1021.43 1019.66 1018.52 1017.59 1017.19 1017.10 1017.20 1017.55 1017.86 1018.28 1018.46 1019.18 1020.23 1020.77 1020.84 1020.68 1020.35 1020.43 1020.46 1020.80 1021.73 1022.83 1024.14 1024.83 1024.34 1022.84 1021.61 1022.14 1022.72 1023.18 1023.61 1024.06 1024.76
1025.01 1024.83 1024.73 1024.60 1024.40 1024.19 1023.90 1023.61 1023.39 1022.98 1022.71 1022.61 1022.42 1022.22 1021.97 1021.66 1021.47 1021.59 1021.94 1021.47 1021.53 1021.51 1019.79 1018.69 1017.70 1017.01 1016.88 1016.61 1016.96 1017.79 1018.38 1018.77 1019.21 1020.35 1021.03 1021.04 1021.05 1020.97 1021.12 1021.06 1020.69 1021.44 1021.54 1022.30 1023.24 1022.88 1022.12 1022.02 1022.12 1022.55 1023.03 1023.73 1024.60 1025.14
1024.52 1024.34 1024.24 1024.13 1023.97 1023.81 1023.62 1023.39 1023.12 1022.76 1022.36 1022.27 1022.14 1022.00 1021.75 1021.47 1021.29 1021.46 1021.82 1021.84 1021.61 1021.31 1019.71 1018.67 1017.10 1016.41 1016.32 1016.34 1016.30 1017.10 1018.25 1018.43 1019.21 1019.41 1020.32 1021.00 1021.13 1021.06 1021.31 1021.06 1020.78 1020.72 1020.99 1021.85 1022.60 1022.47 1022.33 1022.43 1022.76 1022.98 1023.47 1024.14 1024.76 1025.22
1023.97 1023.82 1023.69 1023.61 1023.50 1023.37 1023.24 1023.03 1022.80 1022.50 1022.11 1021.99 1021.90 1021.69 1021.48 1021.19 1021.03 1021.23 1021.64 1021.78 1021.73 1021.65 1020.92 1018.21 1016.75 1016.34 1016.02 1015.97 1016.27 1016.56 1017.33 1018.41 1019.04 1019.62 1020.37 1020.97 1021.17 1020.83 1021.13 1020.82 1020.92 1020.65 1020.84 1021.70 1022.46 1022.60 1022.65 1022.69 1022.95 1023.43 1024.16 1024.72 1025.12 1025.29
1023.35 1023.25 1023.12 1023.03 1023.00 1022.91 1022.80 1022.65 1022.47 1022.20 1021.88 1021.57 1021.51 1021.36 1021.12 1020.97 1020.92 1021.00 1021.21 1021.19 1021.25 1021.61 1021.05 1019.10 1017.40 1016.59 1016.33 1016.30 1016.69 1017.03 1017.65 1018.58 1019.55 1020.39 1020.97 1021.18 1020.87 1021.04 1021.09 1020.98 1020.86 1020.23 1020.34 1021.17 1021.24 1021.27 1021.83 1022.22 1022.69 1023.64 1024.44 1024.86 1025.12 1025.36
1022.65 1022.61 1022.54 1022.47 1022.42 1022.39 1022.33 1022.23 1022.08 1021.89 1021.61 1021.37 1021.17 1021.11 1020.93 1020.79 1020.83 1021.05 1021.03 1021.06 1021.03 1021.16 1021.08 1019.97 1017.96 1017.09 1016.78 1016.92 1017.27 1017.77 1018.23 1019.00 1019.64 1020.29 1020.75 1020.63 1020.21 1020.32 1020.89 1020.90 1019.56 1019.41 1019.64 1019.84 1020.47 1021.10 1021.99 1022.49 1023.18 1023.85 1024.46 1024.92 1025.19 1025.38
1021.80 1021.85 1021.85 1021.82 1021.83 1021.83 1021.78 1021.79 1021.74 1021.56 1021.33 1021.18 1020.86 1020.79 1020.72 1020.57 1020.78 1020.79 1020.73 1020.77 1020.79 1021.08 1020.97 1020.28 1018.69 1017.46 1017.01 1017.38 1018.01 1018.49 1018.73 1019.36 1019.73 1020.35 1020.57 1020.59 1020.36 1020.24 1020.49 1020.22 1018.91 1019.10 1019.57 1020.16 1020.64 1021.25 1022.60 1023.05 1023.50 1024.08 1024.49 1024.93 1025.16 1025.25
1020.95 1021.07 1021.16 1021.20 1021.27 1021.30 1021.29 1021.34 1021.36 1021.27 1021.08 1020.95 1020.76 1020.58 1020.44 1020.36 1020.53 1020.34 1019.93 1019.82 1020.34 1020.83 1020.84 1020.51 1019.21 1018.16 1017.22 1017.99 1018.75 1018.99 1019.46 1019.82 1020.01 1020.23 1020.49 1020.42 1020.44 1020.31 1019.93 1018.78 1018.73 1019.15 1019.86 1020.59 1021.02 1021.28 1021.57 1022.39 1023.52 1024.27 1024.63 1024.96 1025.20 1025.32
1020.14 1020.34 1020.47 1020.57 1020.68 1020.76 1020.83 1020.89 1020.95 1020.96 1020.87 1020.76 1020.57 1020.41 1020.66 1020.52 1020.33 1020.01 1019.86 1019.93 1020.10 1020.89 1020.87 1020.50 1019.48 1018.28 1017.36 1018.19 1018.73 1019.17 1019.44 1020.23 1020.39 1020.23 1020.27 1020.24 1020.28 1019.75 1018.23 1018.17 1018.56 1018.88 1019.26 1020.29 1021.37 1021.86 1022.37 1022.95 1023.71 1024.32 1024.68 1024.97 1025.12 1025.24
1019.36 1019.64 1019.84 1019.98 1020.06 1020.21 1020.34 1020.42 1020.58 1020.67 1020.71 1020.67 1020.90 1020.78 1020.34 1019.89 1019.65 1019.67 1019.85 1019.80 1020.05 1020.82 1020.93 1020.41 1019.15 1018.15 1017.58 1018.38 1018.87 1019.32 1019.64 1020.00 1020.27 1019.83 1019.80 1019.86 1019.29 1017.79 1017.24 1017.13 1017.32 1018.34 1019.09 1020.05 1021.38 1022.57 1023.03 1023.44 1023.75 1024.18 1024.43 1024.63 1024.77 1024.90
1018.68 1018.95 1019.17 1019.37 1019.56 1019.70 1019.87 1019.97 1020.22 1020.42 1020.51 1020.66 1020.41 1020.21 1019.87 1019.65 1019.68 1019.74 1019.60 1019.64 1020.19 1020.52 1020.13 1019.00 1018.61 1017.93 1017.18 1017.57 1018.24 1018.60 1019.11 1019.52 1019.77 1019.47 1019.62 1019.69 1019.03 1017.27 1016.72 1017.12 1017.60 1018.28 1019.07 1019.82 1020.17 1020.86 1021.62 1022.17 1023.15 1023.84 1024.27 1024.43 1024.57 1024.77
1018.02 1018.26 1018.46 1018.72 1019.01 1019.23 1019.42 1019.61 1019.87 1020.41 1020.43 1020.23 1020.06 1019.86 1019.90 1019.82 1019.62 1019.74 1019.42 1019.27 1019.27 1018.94 1018.29 1017.95 1017.52 1017.47 1016.93 1016.84 1017.30 1018.30 1018.50 1018.95 1018.99 1018.95 1019.39 1019.13 1017.49 1016.80 1017.00 1017.39 1017.91 1018.52 1019.32 1020.05 1020.46 1021.09 1021.75 1022.32 1022.87 1023.45 1023.85 1024.16 1024.42 1024.66
1017.44 1017.67 1017.90 1018.06 1018.46 1018.79 1019.00 1019.20 1019.52 1019.87 1020.02 1019.94 1020.08 1019.89 1019.76 1019.71 1019.47 1019.07 1018.40 1018.25 1017.99 1017.60 1017.14 1016.98 1016.83 1016.65 1016.86 1016.69 1016.98 1017.31 1017.85 1018.40 1018.23 1018.82 1018.62 1017.76 1016.88 1016.98 1017.32 1017.74 1018.46 1019.00 1019.59 1020.23 1020.86 1021.31 1021.83 1022.37 1022.84 1023.27 1023.61 1023.84 1024.16 1024.58
1016.89 1017.15 1017.44 1017.70 1018.01 1018.36 1018.69 1019.00 1019.32 1019.75 1020.23 1019.86 1019.86 1019.62 1019.38 1018.83 1018.42 1017.83 1017.49 1017.18 1016.82 1016.68 1016.44 1016.17 1016.29 1016.39 1016.34 1016.42 1016.51 1016.93 1017.03 1017.40 1018.20 1018.38 1017.74 1016.85 1016.40 1017.01 1017.57 1018.07 1018.56 1019.45 1019.99 1020.51 1021.03 1021.46 1021.92 1022.38 1022.81 1023.14 1023.27 1023.57 1023.95 1024.47
1016.33 1016.66 1017.01 1017.35 1017.68 1017.98 1018.38 1018.80 1019.14 1019.64 1019.91 1019.53 1019.15 1018.63 1018.34 1017.95 1017.70 1017.46 1017.24 1017.09 1016.50 1016.14 1016.10 1016.07 1015.87 1015.86 1016.27 1016.14 1016.02 1016.26 1016.85 1016.88 1016.94 1016.75 1016.48 1015.83 1016.18 1016.81 1017.69 1018.36 1018.94 1019.61 1020.21 1020.69 1021.08 1021.50 1021.87 1022.27 1022.68 1023.04 1023.25 1023.46 1023.78 1024.22
1015.94 1016.34 1016.68 1017.07 1017.53 1017.89 1018.21 1018.70 1019.20 1019.30 1019.55 1019.11 1018.88 1018.23 1017.75 1017.81 1017.40 1017.09 1016.77 1016.58 1016.03 1015.86 1015.76 1015.65 1015.59 1015.78 1016.31 1016.36 1016.05 1015.43 1015.71 1015.73 1015.51 1015.54 1015.27 1015.74 1016.28 1016.96 1017.73 1018.40 1019.04 1019.60 1020.18 1020.69 1021.08 1021.41 1021.67 1022.02 1022.37 1022.71 1023.02 1023.29 1023.59 1023.95
1015.66 1016.14 1016.40 1016.86 1017.27 1017.68 1018.19 1019.03 1019.37 1019.13 1019.14 1018.71 1018.23 1017.73 1017.72 1017.49 1017.17 1016.66 1016.24 1015.74 1015.61 1015.44 1015.29 1015.31 1015.47 1015.03 1015.02 1015.11 1015.19 1014.75 1014.66 1014.28 1014.20 1014.71 1015.15 1015.62 1016.03 1016.90 1017.74 1018.49 1019.15 1019.73 1020.34 1020.74 1021.04 1021.33 1021.51 1021.72 1022.05 1022.53 1022.97 1023.17 1023.42 1023.80
1015.99 1016.14 1016.25 1016.66 1017.34 1017.96 1018.42 1018.97 1018.99 1018.71 1018.52 1018.28 1018.19 1017.94 1017.79 1017.08 1016.57 1016.34 1015.89 1015.57 1015.49 1014.99 1015.09 1015.33 1015.32 1015.00 1014.65 1014.27 1014.20 1013.64 1013.76 1014.06 1014.34 1014.71 1015.25 1015.91 1016.55 1017.15 1017.75 1018.55 1019.27 1019.85 1020.39 1020.77 1021.01 1021.23 1021.33 1021.56 1021.80 1022.11 1022.50 1022.83 1023.36 1023.80
1016.05 1016.15 1016.14 1016.75 1017.28 1017.82 1018.28 1018.85 1018.91 1018.28 1017.93 1017.90 1017.79 1017.57 1017.23 1016.63 1015.98 1015.86 1015.81 1015.59 1015.22 1014.78 1015.00 1015.50 1015.40 1014.84 1014.34 1013.53 1013.15 1013.21 1013.46 1013.81 1014.54 1015.24 1015.89 1016.26 1016.61 1017.35 1018.15 1018.87 1019.49 1020.09 1020.54 1020.91 1021.15 1021.15 1021.17 1021.25 1021.53 1021.86 1022.24 1022.65 1023.14 1023.60
1015.94 1015.96 1016.27 1016.75 1017.11 1017.65 1017.94 1018.18 1018.39 1018.06 1017.56 1017.34 1017.18 1017.09 1016.89 1016.55 1016.12 1016.02 1015.91 1015.73 1015.58 1015.45 1015.40 1015.30 1014.76 1014.07 1013.76 1013.09 1013.01 1012.61 1012.75 1013.51 1014.10 1015.34 1016.50 1017.00 1017.24 1017.74 1018.44 1019.04 1019.71 1020.27 1020.70 1021.05 1021.15 1021.11 1021.18 1021.40 1021.61 1021.86 1022.12 1022.48 1022.91 1023.20
1016.39 1016.67 1016.77 1017.08 1017.46 1017.43 1017.41 1017.52 1017.63 1017.43 1017.03 1017.09 1016.70 1016.80 1016.83 1016.51 1016.36 1016.29 1016.19 1015.99 1016.11 1015.90 1015.58 1015.14 1014.48 1013.95 1012.96 1012.61 1012.74 1012.71 1012.81 1013.07 1013.63 1013.81 1015.46 1017.07 1017.66 1018.04 1018.81 1019.44 1019.86 1020.36 1020.70 1021.08 1021.26 1021.42 1021.24 1021.18 1021.32 1021.59 1021.96 1022.35 1022.53 1022.78
1016.82 1016.95 1017.14 1017.37 1017.48 1017.28 1017.12 1017.10 1017.12 1016.84 1016.99 1016.72 1016.69 1016.78 1017.19 1017.33 1016.97 1016.65 1016.39 1016.34 1015.72 1015.39 1015.13 1014.92 1014.10 1013.59 1013.20 1012.78 1012.74 1012.68 1012.78 1013.33 1013.96 1014.79 1015.72 1016.64 1017.82 1018.58 1019.21 1019.62 1020.07 1020.48 1020.70 1020.84 1021.05 1021.22 1021.25 1021.09 1021.22 1021.38 1021.74 1022.02 1022.19 1022.55
1016.68 1016.83 1017.03 1017.40 1017.49 1017.19 1017.09 1016.74 1016.95 1016.81 1016.90 1016.87 1016.89 1017.10 1017.42 1017.34 1017.02 1016.73 1016.58 1016.08 1015.33 1014.68 1014.73 1014.10 1013.79 1013.67 1013.20 1013.10 1012.97 1012.95 1013.20 1013.54 1014.46 1015.28 1016.17 1016.95 1017.71 1018.32 1018.95 1019.57 1019.76 1020.22 1020.64 1020.79 1020.78 1020.89 1020.91 1020.60 1020.63 1021.21 1021.38 1021.70 1021.96 1022.38
1016.66 1016.90 1017.02 1017.11 1017.23 1017.02 1016.86 1016.72 1016.65 1016.67 1016.72 1016.98 1017.28 1017.53 1017.68 1017.63 1017.26 1017.05 1016.76 1015.98 1014.93 1014.26 1014.13 1014.07 1013.67 1013.31 1013.14 1013.30 1013.44 1013.51 1013.85 1014.20 1014.76 1015.64 1016.37 1017.07 1018.02 1018.65 1018.92 1019.39 1019.73 1019.93 1020.05 1020.33 1020.60 1020.72 1020.60 1020.53 1020.45 1020.73 1020.95 1021.38 1021.74 1022.01
1017.21 1017.09 1017.08 1016.82 1016.59 1016.61 1016.46 1016.45 1016.49 1016.61 1016.87 1017.26 1017.50 1017.64 1017.64 1017.56 1017.54 1017.29 1016.54 1015.30 1014.52 1014.08 1013.77 1013.82 1013.73 1013.69 1013.80 1013.94 1013.98 1014.01 1014.22 1014.45 1014.87 1015.82 1016.65 1017.08 1017.82 1018.80 1019.27 1019.58 1019.72 1019.83 1019.99 1020.27 1020.58 1020.53 1020.48 1020.43 1020.30 1020.50 1020.94 1021.31 1021.28 1021.76
1016.98 1016.65 1016.68 1016.32 1016.36 1016.36 1016.30 1016.38 1016.46 1016.60 1016.82 1017.13 1017.31 1017.48 1017.58 1017.70 1017.30 1016.66 1015.85 1014.92 1014.58 1014.12 1013.77 1013.80 1013.92 1014.03 1014.04 1014.07 1014.21 1014.13 1014.23 1014.63 1015.08 1015.75 1016.54 1016.83 1017.23 1017.76 1018.58 1019.20 1019.61 1019.89 1019.91 1019.94 1020.23 1020.40 1020.41 1020.39 1020.39 1020.53 1020.97 1021.53 1022.08 1022.48
1016.99 1016.53 1016.32 1016.15 1016.12 1016.08 1016.29 1016.32 1016.38 1016.51 1016.66 1016.78 1017.13 1017.42 1017.52 1017.42 1016.76 1015.76 1014.76 1014.43 1014.25 1013.70 1013.40 1013.19 1013.40 1013.60 1013.63 1013.77 1014.09 1013.93 1013.98 1014.39 1014.69 1015.11 1015.53 1016.41 1016.96 1017.22 1017.49 1018.22 1018.83 1019.10 1019.56 1019.82 1020.10 1020.18 1020.40 1020.51 1020.50 1020.66 1021.09 1021.46 1021.80 1022.03
1016.59 1016.30 1016.25 1016.15 1016.13 1016.00 1016.14 1016.36 1016.43 1016.39 1016.40 1016.36 1016.67 1016.95 1016.84 1016.59 1015.80 1014.80 1014.17 1013.63 1013.50 1013.31 1013.12 1012.98 1013.07 1013.10 1013.32 1013.51 1013.72 1013.99 1014.37 1014.91 1015.34 1015.60 1016.09 1016.87 1017.34 1017.57 1017.70 1017.98 1018.25 1018.67 1019.27 1019.59 1019.94 1020.09 1020.08 1020.26 1020.49 1020.77 1021.05 1021.42 1021.82 1022.09
1016.25 1015.89 1015.88 1015.91 1015.93 1015.91 1015.93 1015.97 1015.97 1015.82 1015.51 1015.83 1016.02 1015.79 1015.54 1015.14 1014.44 1014.07 1013.72 1013.41 1013.25 1013.30 1013.28 1013.23 1013.27 1013.20 1013.50 1013.55 1013.61 1013.93 1014.10 1014.45 1014.97 1015.73 1016.32 1017.00 1017.63 1017.95 1017.85 1018.03 1018.52 1018.92 1019.20 1019.65 1020.05 1020.04 1020.13 1020.26 1020.48 1020.74 1021.24 1021.56 1022.02 1022.31
1015.68 1015.35 1015.54 1015.47 1015.54 1015.43 1015.07 1014.93 1014.88 1014.70 1014.76 1014.78 1014.85 1014.89 1014.74 1014.28 1013.74 1013.42 1013.49 1013.43 1013.44 1013.44 1013.39 1013.28 1013.18 1013.24 1013.34 1013.61 1013.82 1014.10 1014.07 1014.03 1014.19 1014.82 1015.61 1016.14 1016.38 1016.81 1017.41 1017.97 1018.52 1018.95 1019.20 1019.66 1020.12 1020.39 1020.51 1020.53 1020.96 1021.37 1021.57 1022.16 1022.58 1023.02
1014.97 1015.10 1015.10 1015.08 1014.95 1014.53 1014.30 1014.26 1014.33 1014.40 1014.51 1014.58 1014.63 1014.84 1014.72 1014.29 1013.64 1013.05 1012.96 1012.80 1012.95 1013.16 1013.23 1013.17 1013.26 1013.16 1013.15 1013.29 1013.46 1013.70 1013.98 1014.06 1014.03 1014.20 1014.51 1015.04 1015.70 1016.27 1017.07 1017.76 1018.32 1018.86 1019.28 1019.73 1020.12 1020.40 1020.60 1020.92 1021.21 1021.60 1022.23 1022.57 1022.99 1023.43
1014.54 1014.72 1014.86 1014.98 1014.71 1014.33 1014.20 1014.38 1014.47 1014.57 1014.69 1014.77 1014.72 1014.61 1014.47 1014.37 1014.09 1013.14 1012.27 1012.30 1012.52 1012.69 1012.79 1012.90 1012.86 1012.69 1012.50 1012.66 1012.63 1012.56 1012.51 1012.91 1013.57 1014.05 1014.55 1015.11 1015.70 1016.33 1016.86 1017.57 1018.26 1018.80 1019.29 1019.79 1020.07 1020.33 1020.68 1021.07 1021.65 1022.08 1022.53 1022.87 1023.29 1023.81
1014.11 1014.19 1014.31 1014.63 1014.55 1014.44 1014.49 1014.48 1014.68 1014.78 1014.84 1014.94 1014.60 1014.43 1014.25 1014.23 1013.82 1012.77 1011.76 1011.61 1011.64 1011.77 1011.93 1011.96 1011.96 1011.91 1011.95 1012.07 1012.27 1012.23 1012.30 1012.64 1013.15 1013.59 1014.12 1014.78 1015.41 1016.22 1016.81 1017.51 1018.14 1018.72 1019.28 1019.81 1020.13 1020.31 1020.73 1021.18 1021.81 1022.41 1022.78 1023.18 1023.78 1024.38
Wind_Speed
17 15 15 15 15 15 15 16 16 11 9 10 11 12 12 11 4 3 4 2 3 2 6 3 3 1 1 2 4 3 5 4 4 4 3 3 3 2 2 4 5 6 6 3 3 2 6 6 4 6 5 2 5 4
18 14 15 14 14 14 14 14 15 16 9 9 10 10 11 11 3 4 2 1 0 3 6 2 6 7 4 4 6 1 5 3 4 5 0 2 2 2 3 3 2 1 6 6 7 7 2 1 3 2 4 5 4 4
16 15 15 14 14 13 13 14 15 17 14 8 9 10 11 11 4 3 2 2 2 2 6 4 4 2 3 6 4 5 2 3 2 2 4 2 2 4 4 5 2 0 3 4 4 1 2 2 2 3 3 4 5 4
16 16 15 14 14 13 13 14 14 15 13 8 9 9 10 10 4 4 1 1 2 2 1 7 3 2 3 3 3 3 6 5 5 3 3 3 3 3 4 3 3 5 4 5 0 2 1 4 4 6 5 6 5 3
16 16 16 15 14 14 12 13 14 14 14 12 9 11 9 10 3 2 2 3 2 3 3 5 7 2 2 5 8 6 6 4 3 3 3 3 2 3 1 2 3 5 7 5 6 8 5 3 8 7 7 5 5 4
17 17 16 15 15 13 13 12 13 13 14 11 12 9 9 6 1 1 2 1 4 3 1 4 4 3 3 5 7 6 3 4 3 4 3 2 3 3 3 4 5 4 3 5 5 6 3 5 7 5 6 6 4 4
18 17 16 16 14 13 12 11 11 12 12 9 9 6 7 6 2 3 1 3 3 2 2 4 5 3 2 4 3 3 4 2 3 2 1 2 1 3 3 4 5 6 6 6 8 10 4 3 5 7 7 6 6 3
17 16 16 14 13 13 11 11 10 11 11 10 11 5 8 4 3 4 1 4 6 2 1 2 5 2 3 1 2 1 2 3 3 2 1 2 1 1 3 7 1 6 8 7 5 3 4 9 8 7 5 5 5 5
15 15 15 14 13 12 12 12 9 9 9 10 11 3 2 1 2 0 3 9 2 3 1 2 4 5 1 1 2 2 2 1 2 1 2 4 0 5 8 7 7 9 10 11 5 6 8 8 8 7 6 5 5 5
14 15 15 14 15 14 12 12 8 8 8 8 0 1 2 3 2 2 3 1 2 1 2 3 1 3 4 1 1 4 1 3 2 4 3 2 5 6 6 8 10 10 12 15 9 4 4 5 7 7 7 6 5 6
15 17 16 15 13 12 10 8 7 6 3 1 3 3 1 2 1 2 2 3 2 3 4 5 5 2 2 4 4 2 4 2 2 4 5 2 5 5 2 6 6 9 12 9 4 5 7 8 10 8 6 6 5 5
14 15 17 16 14 12 11 10 8 3 3 2 2 1 1 2 1 3 4 3 5 6 4 5 6 6 2 2 4 2 4 2 4 4 3 3 6 3 4 5 8 12 12 8 5 8 8 8 8 8 6 6 6 6
14 14 13 13 14 12 12 11 8 8 2 1 1 3 3 2 5 5 6 4 4 3 4 3 4 4 1 1 3 3 4 5 3 2 5 6 3 3 5 7 8 8 9 8 6 6 7 7 7 6 6 5 6 5
15 14 14 13 12 12 11 10 8 6 2 2 4 7 5 4 5 5 5 4 4 3 3 4 3 3 1 3 3 5 3 5 2 2 7 4 6 7 6 7 11 9 8 8 8 7 8 8 6 6 5 5 6 6
13 14 13 10 8 10 13 11 9 3 1 4 3 5 7 3 2 4 3 2 3 2 2 1 2 3 1 1 3 4 3 5 6 6 5 4 7 11 10 8 9 9 7 6 6 6 7 7 6 6 6 5 5 5
12 8 7 11 10 12 10 7 3 3 2 3 4 3 3 2 3 2 4 5 3 2 2 1 3 3 5 4 3 7 8 7 4 5 3 5 10 10 10 8 7 7 7 6 6 5 5 6 6 5 4 5 5 7
11 1 12 13 13 10 10 4 1 4 4 3 3 3 3 3 4 2 2 1 2 3 2 3 4 6 3 5 5 5 6 5 4 3 4 6 13 12 9 8 8 8 7 6 5 5 4 3 4 4 5 5 5 6
2 3 13 15 8 6 2 2 2 3 4 4 4 4 3 3 1 2 3 1 2 3 1 1 2 3 4 6 4 5 2 2 2 3 4 7 8 9 9 9 7 7 7 5 5 4 3 4 4 3 5 5 6 5
5 4 13 18 6 3 2 3 2 2 4 3 4 3 3 3 3 1 1 2 2 1 5 3 3 3 4 4 4 3 3 3 4 3 4 5 9 10 9 7 7 6 7 6 4 1 1 4 3 4 5 6 5 5
6 4 19 16 6 2 3 2 2 3 3 4 2 2 2 3 1 2 3 2 2 2 0 3 5 4 4 3 3 2 4 7 9 7 5 4 5 8 8 8 5 6 5 5 3 3 3 3 3 3 4 5 5 5
7 3 13 5 1 2 0 2 3 3 2 2 1 3 2 2 2 2 1 1 2 1 2 3 4 8 5 4 3 3 6 7 6 10 9 6 3 6 5 4 6 4 4 4 4 2 1 2 3 4 5 4 4 5
2 5 2 1 0 2 2 3 2 2 0 2 1 1 2 1 1 1 1 1 3 4 3 3 5 6 6 2 3 5 7 9 9 9 11 12 6 5 4 5 5 4 4 4 4 4 3 2 4 4 5 4 5 5
6 1 2 2 1 0 3 1 0 1 2 0 2 2 2 2 2 2 1 2 3 2 4 5 6 8 2 3 6 8 6 11 8 7 7 5 5 5 5 4 4 6 4 2 3 3 3 7 5 5 5 5 4 4
0 2 3 2 4 3 1 1 1 1 1 2 2 1 1 2 2 3 2 3 4 2 4 6 4 2 3 5 3 4 4 4 7 6 6 8 6 3 4 4 4 3 3 4 3 3 3 3 5 4 5 6 6 6
2 3 3 3 2 2 2 2 1 2 2 1 3 1 2 2 2 2 3 5 2 3 3 1 1 1 2 2 2 3 4 5 8 8 3 4 5 4 4 3 2 3 3 5 3 2 3 3 3 6 6 9 7 8
1 2 4 2 0 2 3 2 3 3 2 2 2 1 2 2 1 4 3 3 3 3 4 4 4 2 1 2 4 2 4 4 5 4 4 6 8 8 7 5 4 3 3 3 5 4 3 3 4 7 7 9 12 8
1 3 3 2 2 2 1 1 2 2 3 3 3 2 3 1 4 4 3 3 3 4 3 3 5 5 4 3 2 1 5 6 4 4 5 5 4 5 8 9 6 4 5 6 4 4 6 5 4 5 5 5 8 10
4 2 4 3 2 1 3 2 2 3 3 2 4 2 5 6 5 4 4 3 3 3 2 1 4 4 4 4 3 5 6 6 7 8 8 6 4 3 4 4 4 11 6 5 5 4 5 5 5 3 5 5 5 4
3 2 3 2 2 2 4 4 4 4 3 4 5 3 3 4 3 2 3 2 1 3 2 2 2 3 2 2 2 4 8 8 9 8 6 4 3 3 3 4 5 4 5 5 3 2 7 6 5 4 6 5 4 6
4 4 3 4 5 5 4 6 3 3 3 4 3 1 2 3 3 2 2 1 1 1 2 2 1 3 5 5 3 2 3 5 6 7 7 6 7 5 7 6 6 5 5 6 5 4 2 7 6 4 7 5 6 7
2 2 2 3 3 3 3 3 1 1 1 2 1 3 3 3 4 3 4 4 3 3 2 1 1 2 4 4 5 7 5 4 6 7 4 4 7 8 8 7 7 7 6 7 6 5 5 5 5 8 5 7 8 9
4 5 4 3 3 2 1 2 1 1 0 1 2 1 2 2 2 4 3 3 3 4 6 4 3 3 3 3 4 4 7 9 8 6 9 7 7 8 10 8 8 8 9 7 5 5 7 9 6 5 7 10 10 11
1 1 2 3 2 1 0 3 2 1 1 1 3 3 3 4 5 4 3 4 5 4 5 6 5 4 5 4 6 6 5 6 7 8 11 11 12 11 10 9 9 10 11 8 6 7 8 9 8 8 8 10 11 12
Wind_Direction
287 290 295 305 310 313 309 314 326 302 306 309 319 325 326 320 335 87 267 214 136 194 276 242 293 254 88 102 140 237 46 345 46 75 131 199 159 227 80 170 180 164 141 174 91 93 277 161 97 155 203 54 145 150
293 278 290 293 300 306 311 310 314 313 280 297 312 320 320 318 309 111 300 338 83 172 244 269 264 253 229 205 139 82 171 167 182 93 210 114 142 88 147 229 54 235 175 180 163 213 244 351 176 134 147 139 174 154
288 287 288 287 291 297 303 309 306 308 300 273 296 311 314 311 276 151 236 293 36 14 306 357 279 342 136 196 189 121 280 162 176 172 153 152 135 129 164 240 189 192 143 109 86 239 154 142 84 111 103 115 124 136
283 283 280 281 286 289 297 304 306 303 304 291 287 301 308 310 264 195 229 203 96 107 231 281 331 301 325 152 122 118 136 77 96 66 97 129 153 168 195 194 169 200 125 135 54 303 22 248 206 146 111 116 123 139
277 281 281 276 278 284 286 295 303 303 300 292 278 282 284 306 272 205 212 221 184 138 235 279 304 308 310 109 96 89 98 102 96 69 82 218 154 117 24 84 247 185 172 155 216 192 164 213 166 145 145 143 147 141
268 272 276 275 276 275 277 285 296 304 297 299 281 295 314 312 152 270 303 338 198 153 85 312 295 325 81 89 91 84 80 88 90 130 195 248 257 106 133 199 251 201 177 166 180 125 85 95 114 125 128 142 157 179
262 264 269 271 269 273 271 276 289 295 301 317 303 275 305 271 163 218 255 172 150 97 141 305 318 290 138 100 47 58 39 80 107 126 168 176 267 107 129 188 234 183 146 116 120 112 64 194 178 150 132 162 177 168
257 257 262 261 262 269 263 269 273 287 299 307 311 260 301 190 266 292 290 247 154 140 116 223 264 348 171 112 98 23 82 29 10 148 61 173 28 81 252 241 181 122 113 124 164 33 159 122 114 134 138 147 158 156
246 252 255 255 255 261 259 267 257 278 290 295 314 29 25 189 208 219 95 124 109 94 239 180 179 216 88 97 109 52 88 94 307 160 242 106 226 225 221 189 172 176 172 162 107 91 107 132 149 148 154 166 163 171
235 244 249 250 252 246 251 262 242 261 278 295 7 216 229 217 237 43 212 208 99 50 343 236 303 245 118 150 64 98 25 162 166 243 108 143 252 244 224 204 183 157 139 135 117 130 134 158 168 166 183 176 183 177
240 241 241 242 247 251 251 228 227 241 281 105 199 227 101 281 102 182 213 195 135 209 204 223 192 208 236 130 154 187 169 162 157 252 136 246 276 244 224 171 142 135 150 153 130 147 166 163 166 164 172 187 178 170
244 245 241 237 235 243 234 223 219 156 198 214 246 166 92 201 153 196 197 173 202 222 208 188 193 204 226 129 110 200 148 114 219 147 118 254 251 231 135 136 134 141 141 139 144 143 151 148 156 156 161 169 180 184
243 243 242 233 224 230 232 225 204 193 194 111 332 181 179 160 220 220 192 187 201 211 211 178 167 178 24 102 82 127 135 200 102 116 225 223 260 144 135 125 116 119 122 121 118 127 138 138 141 149 170 187 170 167
245 234 228 231 222 230 227 215 210 192 213 202 186 176 207 180 231 201 211 186 223 198 190 168 133 144 252 147 155 147 174 108 143 207 233 235 203 150 134 131 126 138 140 141 144 146 146 151 164 167 185 168 164 173
237 222 226 216 229 218 209 200 206 163 211 219 203 205 213 247 250 246 246 284 261 244 119 125 80 111 221 106 219 109 134 207 202 220 226 222 157 148 145 142 135 139 145 152 149 155 168 168 172 188 200 189 180 154
225 212 192 170 196 194 188 195 180 149 213 238 223 243 214 242 268 238 222 244 228 205 140 166 130 182 151 200 243 213 159 198 228 216 208 138 145 145 145 142 141 143 148 153 155 165 162 164 175 193 175 182 182 167
150 121 165 177 186 181 167 104 352 178 208 227 235 245 246 269 244 260 287 252 205 196 177 115 200 208 122 171 202 180 188 200 203 193 149 154 152 148 140 135 138 138 141 153 148 151 169 174 150 152 180 210 174 163
94 173 174 179 146 108 114 93 202 184 211 225 226 229 211 251 280 149 259 313 229 169 125 96 316 225 215 177 227 220 180 63 54 118 129 132 126 132 140 139 135 140 142 147 145 159 155 171 186 193 184 165 135 138
149 169 149 144 124 110 135 150 206 249 227 220 235 239 239 262 243 110 181 262 266 45 119 148 241 242 249 235 210 178 166 164 148 123 101 118 132 133 129 122 126 127 136 137 143 172 162 162 155 141 138 143 137 149
99 59 156 156 124 142 149 152 191 246 242 229 216 202 205 215 205 142 99 50 37 19 175 213 222 206 213 273 275 234 126 132 132 110 95 84 114 124 136 137 138 132 121 132 119 75 108 113 134 140 137 141 151 158
59 70 143 118 94 293 148 167 200 235 232 218 255 151 205 3 78 115 141 159 89 238 243 256 277 273 287 263 240 159 138 150 159 143 145 137 139 123 117 117 125 124 129 154 146 158 265 153 157 148 149 161 162 150
101 102 114 98 196 248 240 212 215 285 166 263 59 49 68 66 200 210 190 163 196 199 168 259 294 304 290 222 170 140 121 104 98 93 84 117 129 127 137 145 130 141 155 173 164 170 201 193 142 137 138 153 137 141
130 174 102 107 258 269 248 59 232 244 140 68 23 45 2 347 257 356 3 239 276 199 189 237 263 272 277 150 124 105 110 120 117 118 125 110 106 113 121 143 141 139 145 183 165 164 194 218 189 161 161 158 149 148
310 131 188 203 175 209 166 245 212 107 93 61 64 97 264 238 331 45 251 247 241 243 169 211 254 313 56 59 92 108 95 100 110 95 122 128 130 153 143 146 151 164 149 136 146 159 209 136 127 128 145 143 161 163
79 250 151 276 225 185 156 139 116 87 114 122 88 275 261 56 71 294 256 277 272 256 253 113 311 14 113 92 99 119 131 144 141 145 140 118 114 94 95 109 165 172 143 120 131 140 113 95 88 131 124 113 56 92
154 231 155 210 167 176 159 144 176 175 145 144 188 138 48 72 274 242 239 240 244 246 223 197 182 179 276 184 145 167 151 134 117 118 158 160 157 153 155 149 154 228 198 157 136 137 139 112 77 100 125 145 151 167
306 250 233 256 143 109 89 77 104 121 175 176 181 140 94 179 242 255 273 227 247 249 236 194 164 175 190 184 207 224 139 150 148 164 137 141 138 165 159 161 179 196 152 148 165 153 152 119 84 73 120 142 165 179
234 228 189 189 178 174 136 122 143 194 210 187 98 165 182 198 237 242 232 258 245 297 283 193 198 190 174 198 169 118 97 98 93 96 86 65 71 115 120 119 123 138 148 148 162 151 151 126 92 136 140 137 137 131
237 248 136 190 161 179 205 183 208 221 198 149 168 205 230 223 231 233 259 249 338 11 11 40 3 162 131 62 118 122 138 138 125 120 128 148 153 210 168 133 132 142 137 125 85 133 154 131 133 134 113 109 98 105
245 175 180 190 173 202 235 177 218 228 186 181 180 7 311 278 250 203 226 212 127 242 240 199 196 151 167 157 161 142 183 173 160 151 160 189 203 150 155 146 149 149 136 128 124 101 135 110 89 112 98 100 103 112
180 158 190 173 216 224 217 192 156 127 140 182 157 168 235 288 305 252 219 218 184 174 193 242 172 169 146 163 165 165 186 228 202 195 170 107 134 146 145 145 145 143 138 139 142 139 119 101 111 102 133 131 125 127
166 189 168 183 249 274 72 131 140 144 324 148 253 224 324 14 274 277 239 156 178 198 205 193 194 247 205 199 202 204 185 176 186 170 153 147 139 143 139 138 142 141 139 140 144 137 143 119 124 147 147 141 133 131
65 106 147 116 56 148 291 102 66 338 21 309 260 215 208 190 237 258 280 205 200 198 197 199 213 225 241 238 204 199 182 168 164 148 139 134 137 143 141 143 146 143 138 132 131 142 145 133 122 133 133 127 126 124